Torna al catalogo

STARLINK-11223

AttivoComunicazioniVLEO
NORAD 60307·PAYLOAD·🇺🇸 United States

Lanciato Jul 28, 2024 da Vandenberg Space Force Base

Loading…

Prossimi Passaggi (prossime 24 ore)

TLE

AggiornatoSource: CelesTrak SupGP

Epoca: Sep 14, 2026, 14:02 UTC

1 60307C 24133G   26257.58520833  .00060412  00000+0  49775-3 0  2579
2 60307  53.1570 294.8551 0001364  65.5369 334.5178 15.69673378    18

Traccia STARLINK-11223 in tempo reale con AllMySat

Download on the App Store